Crane Lake, MN

12:31 PM CST on February 07, 2016 (GMT -0600)
Crane Lake

Weather History for KCDD - February, 2013

Change the Weather History Date:

Monday, February 11, 2013

  Actual Average Record
Temperature  
Mean Temperature 22 °F -  
Max Temperature 28 °F 22 °F 44 °F (2005)
Min Temperature 15 °F 0 °F -32 °F (2008)
Degree Days  
Heating Degree Days 44    
Moisture  
Dew Point 17 °F    
Average Humidity 92    
Maximum Humidity 100    
Minimum Humidity 79    
Precipitation  
Precipitation 0.19 in - - ()
Sea Level Pressure  
Sea Level Pressure 29.70 in    
Wind  
Wind Speed 7 mph (NNW)    
Max Wind Speed 15 mph    
Max Gust Speed 21 mph    
Visibility 6 miles    
Events Snow    
Averages and records for this station are not official NWS values.
T = Trace of Precipitation, MM = Missing Value Source: NWS Daily Summary

Daily Weather History Graph

Daily Weather History Graph

Search for Another Location

Airport or City:

Trip Planner

Search our weather history database for the weather conditions in past years. The results will help you decide how hot, cold, wet, or windy it might be!

Date:

Astronomy

Feb. 11, 2013 Rise Set
Actual Time 7:23 AM CST 5:25 PM CST
Civil Twilight 6:50 AM CST 5:58 PM CST
Nautical Twilight 6:13 AM CST 6:35 PM CST
Astronomical Twilight 5:37 AM CST 7:11 PM CST
Moon 7:36 AM CST (2/11) 7:37 PM CST (2/11)
Length of Visible Light 11h 07m
Length of Day
10h 02m
Waxing Crescent, 3% of the Moon is Illuminated
Feb 11
Waxing Crescent
Feb 17
First Quarter
Feb 25
Full
Mar 4
Last Quarter
Mar 11
New

Hourly Weather History & Observations

Time (CST) Temp. Windchill Dew Point Humidity Pressure Visibility Wind Dir Wind Speed Gust Speed Precip Events Conditions
12:13 AM 28.4 °F 18.0 °F 26.6 °F 93% 29.33 in 1.5 mi NE 12.7 mph 20.7 mph 0.01 in Snow Light Snow
12:31 AM 23.0 °F 17.0 °F 21.2 °F 93% 29.51 in 0.5 mi North 4.6 mph - 0.04 in Snow Light Snow
12:51 AM 23.0 °F 14.7 °F 21.2 °F 93% 29.51 in 0.8 mi NNW 6.9 mph - 0.06 in Snow Light Snow
1:11 AM 23.0 °F 15.8 °F 21.2 °F 93% 29.50 in 0.8 mi North 5.8 mph - 0.02 in Snow Light Snow
1:32 AM 23.0 °F 15.8 °F 21.2 °F 93% 29.50 in 1.5 mi North 5.8 mph - 0.04 in Snow Light Snow
1:51 AM 23.0 °F 14.7 °F 21.2 °F 93% 29.50 in 1.2 mi NNW 6.9 mph - 0.05 in Snow Light Snow
2:11 AM 23.0 °F 14.7 °F 21.2 °F 93% 29.51 in 1.2 mi NNW 6.9 mph - 0.01 in Snow Light Snow
2:37 AM 21.2 °F 12.6 °F 21.2 °F 100% 29.51 in 1.5 mi North 6.9 mph - 0.03 in Snow Light Snow
2:52 AM 21.2 °F 12.6 °F 21.2 °F 100% 29.51 in 1.2 mi North 6.9 mph - 0.04 in Snow Light Snow
3:11 AM 21.2 °F 14.9 °F 19.4 °F 93% 29.51 in 1.2 mi NNW 4.6 mph - 0.01 in Snow Light Snow
3:33 AM 21.2 °F 13.6 °F 19.4 °F 93% 29.52 in 1.5 mi North 5.8 mph - 0.01 in Snow Light Snow
3:51 AM 21.2 °F 13.6 °F 19.4 °F 93% 29.52 in 1.0 mi NNW 5.8 mph - 0.02 in Snow Light Snow
4:12 AM 21.2 °F 12.6 °F 19.4 °F 93% 29.53 in 1.2 mi NNW 6.9 mph - N/A Snow Light Snow
4:31 AM 21.2 °F 13.6 °F 19.4 °F 93% 29.54 in 1.2 mi NNW 5.8 mph - N/A Snow Light Snow
4:52 AM 21.2 °F 12.6 °F 19.4 °F 93% 29.54 in 1.5 mi North 6.9 mph - 0.01 in Snow Light Snow
5:11 AM 19.4 °F 10.4 °F 19.4 °F 100% 29.55 in 1.2 mi NNW 6.9 mph - N/A Snow Light Snow
5:32 AM 19.4 °F 9.5 °F 19.4 °F 100% 29.56 in 0.8 mi NNW 8.1 mph - N/A Snow Light Snow
5:51 AM 19.4 °F 11.5 °F 17.6 °F 93% 29.57 in 1.2 mi NNW 5.8 mph - N/A Snow Light Snow
6:11 AM 19.4 °F 11.5 °F 17.6 °F 93% 29.58 in 1.0 mi NNW 5.8 mph - N/A Snow Light Snow
6:31 AM 19.4 °F 9.5 °F 17.6 °F 93% 29.59 in 1.0 mi NNW 8.1 mph - 0.01 in Snow Light Snow
6:51 AM 19.4 °F 8.6 °F 17.6 °F 93% 29.60 in 0.8 mi NNW 9.2 mph - 0.01 in Snow Light Snow
7:11 AM 19.4 °F 8.6 °F 17.6 °F 93% 29.61 in 1.2 mi NNW 9.2 mph 16.1 mph N/A Snow Light Snow
7:31 AM 17.6 °F 7.3 °F 17.6 °F 100% 29.62 in 1.5 mi NNW 8.1 mph 18.4 mph N/A Snow Light Snow
7:51 AM 17.6 °F 6.4 °F 15.8 °F 93% 29.63 in 1.8 mi NNW 9.2 mph - N/A Snow Light Snow
8:12 AM 17.6 °F 7.3 °F 15.8 °F 93% 29.64 in 1.8 mi NNW 8.1 mph - N/A Snow Light Snow
8:31 AM 17.6 °F 7.3 °F 15.8 °F 93% 29.64 in 1.5 mi North 8.1 mph 17.3 mph N/A Snow Light Snow
8:51 AM 17.6 °F 7.3 °F 15.8 °F 93% 29.65 in 2.5 mi NNW 8.1 mph - N/A Snow Light Snow
9:11 AM 17.6 °F 7.3 °F 15.8 °F 93% 29.66 in 5.0 mi NNW 8.1 mph - N/A Snow Light Snow
9:32 AM 17.6 °F 6.4 °F 15.8 °F 93% 29.67 in 5.0 mi NNW 9.2 mph - N/A Snow Light Snow
9:51 AM 17.6 °F 8.2 °F 15.8 °F 93% 29.68 in 5.0 mi NNW 6.9 mph - N/A Snow Light Snow
10:11 AM 17.6 °F 5.7 °F 15.8 °F 93% 29.68 in 5.0 mi NNW 10.4 mph - N/A Snow Light Snow
10:31 AM 19.4 °F 9.5 °F 17.6 °F 93% 29.69 in 5.0 mi NNW 8.1 mph - N/A Snow Light Snow
10:51 AM 19.4 °F 7.9 °F 15.8 °F 86% 29.70 in 5.0 mi NNW 10.4 mph 16.1 mph N/A Snow Light Snow
11:12 AM 19.4 °F 7.2 °F 17.6 °F 93% 29.71 in 10.0 mi NNW 11.5 mph 16.1 mph N/A Snow Light Snow
11:32 AM 19.4 °F 7.2 °F 17.6 °F 93% 29.72 in 10.0 mi NNW 11.5 mph - N/A Snow Light Snow
11:51 AM 19.4 °F 7.9 °F 17.6 °F 93% 29.72 in 10.0 mi NNW 10.4 mph - N/A Snow Light Snow
12:11 PM 19.4 °F 7.9 °F 17.6 °F 93% 29.73 in 7.0 mi NNW 10.4 mph 16.1 mph N/A   Overcast
12:31 PM 19.4 °F 7.9 °F 17.6 °F 93% 29.73 in 4.0 mi NW 10.4 mph 17.3 mph N/A Snow Light Snow
12:51 PM 19.4 °F 8.6 °F 17.6 °F 93% 29.73 in 2.5 mi NNW 9.2 mph - N/A Snow Light Snow
1:11 PM 19.4 °F 10.4 °F 17.6 °F 93% 29.75 in 5.0 mi NW 6.9 mph - N/A Snow Light Snow
1:31 PM 19.4 °F 5.5 °F 17.6 °F 93% 29.75 in 10.0 mi NNW 15.0 mph 19.6 mph N/A Snow Light Snow
1:51 PM 19.4 °F 8.6 °F 17.6 °F 93% 29.76 in 10.0 mi NNW 9.2 mph - N/A Snow Light Snow
2:11 PM 19.4 °F 6.6 °F 17.6 °F 93% 29.77 in 10.0 mi NW 12.7 mph 17.3 mph N/A Snow Light Snow
2:32 PM 19.4 °F 7.9 °F 17.6 °F 93% 29.77 in 7.0 mi NNW 10.4 mph 17.3 mph N/A Snow Light Snow
2:52 PM 19.4 °F 9.5 °F 17.6 °F 93% 29.78 in 7.0 mi NW 8.1 mph 17.3 mph N/A Snow Light Snow
3:11 PM 19.4 °F 7.9 °F 17.6 °F 93% 29.79 in 7.0 mi NW 10.4 mph - N/A Snow Light Snow
3:31 PM 19.4 °F 10.4 °F 17.6 °F 93% 29.80 in 10.0 mi NNW 6.9 mph - N/A Snow Light Snow
3:52 PM 21.2 °F 11.7 °F 17.6 °F 86% 29.80 in 10.0 mi NNW 8.1 mph - N/A Snow Light Snow
4:51 PM 19.4 °F 11.5 °F 17.6 °F 93% 29.83 in 10.0 mi NW 5.8 mph - N/A   Overcast
5:11 PM 19.4 °F 10.4 °F 15.8 °F 86% 29.83 in 10.0 mi NNW 6.9 mph - N/A   Overcast
5:31 PM 19.4 °F - 15.8 °F 86% 29.84 in 10.0 mi Calm Calm - N/A   Overcast
5:51 PM 19.4 °F - 15.8 °F 86% 29.85 in 10.0 mi Calm Calm - N/A   Overcast
6:11 PM 17.6 °F - 15.8 °F 93% 29.85 in 10.0 mi Calm Calm - N/A   Overcast
6:31 PM 17.6 °F - 15.8 °F 93% 29.86 in 7.0 mi Calm Calm - N/A Snow Light Snow
6:51 PM 17.6 °F 12.3 °F 15.8 °F 93% 29.86 in 7.0 mi West 3.5 mph - N/A Snow Light Snow
7:11 PM 17.6 °F - 15.8 °F 93% 29.87 in 10.0 mi Calm Calm - N/A   Overcast
7:31 PM 17.6 °F - 15.8 °F 93% 29.88 in 10.0 mi Calm Calm - N/A Snow Light Snow
7:51 PM 17.6 °F - 15.8 °F 93% 29.88 in 10.0 mi Calm Calm - N/A   Overcast
8:11 PM 17.6 °F - 15.8 °F 93% 29.88 in 10.0 mi Calm Calm - N/A Snow Light Snow
8:31 PM 17.6 °F - 15.8 °F 93% 29.88 in 1.8 mi Calm Calm - N/A Snow Light Snow
8:51 PM 17.6 °F - 15.8 °F 93% 29.89 in 7.0 mi Calm Calm - N/A Snow Light Snow
9:15 PM 17.6 °F - 14.0 °F 86% 29.89 in 10.0 mi Calm Calm - N/A Snow Light Snow
9:33 PM 17.6 °F - 12.2 °F 79% 29.84 in 10.0 mi Calm Calm - N/A   Overcast
9:54 PM 17.6 °F - 14.0 °F 86% 29.89 in 7.0 mi Calm Calm - N/A Snow Light Snow
10:11 PM 17.6 °F - 14.0 °F 86% 29.88 in 10.0 mi Calm Calm - N/A   Overcast
10:31 PM 17.6 °F - 14.0 °F 86% 29.88 in 10.0 mi Calm Calm - N/A   Overcast
10:54 PM 17.6 °F - 14.0 °F 86% 29.88 in 10.0 mi Calm Calm - N/A Snow Light Snow
11:11 PM 15.8 °F - 14.0 °F 93% 29.88 in 10.0 mi Calm Calm - N/A   Overcast
11:32 PM 15.8 °F 10.2 °F 14.0 °F 93% 29.88 in 10.0 mi SSW 3.5 mph - N/A   Overcast
11:51 PM 15.8 °F - 14.0 °F 93% 29.88 in 10.0 mi Calm Calm - N/A   Overcast